Regional Weather Roundup
Issued by NWS Sioux Falls, SD

Home | Current Version | Previous Version | Graphics & Text | Print | Product List | Glossary On
Versions: 1 2 3 4 5 6 7 8 9 10 11 12 13 14 15 16 17 18 19 20 21 22 23 24 25 26 27 28 29 30 31 32 33 34 35 36 37 38 39 40 41 42 43 44 45 46 47 48 49 50
000
ASUS43 KFSD 261110
RWRFSD

WEATHER ROUNDUP FOR SE SOUTH DAKOTA/SW MINNESOTA/NW IOWA
NATIONAL WEATHER SERVICE SIOUX FALLS SD
600 AM CDT TUE MAY 26 2015

NOTE: "FAIR" INDICATES FEW OR NO CLOUDS BELOW 12,000 FEET WITH NO
SIGNIFICANT WEATHER AND OR OBSTRUCTIONS TO VISIBILITY.


SDZ038>040-050-052>070-261200-
SOUTHEAST SOUTH DAKOTA

CITY           SKY/WX    TMP DP  RH WIND       PRES   REMARKS
BROOKINGS      CLOUDY    54  48  82 N12       29.85S
CHAMBERLAIN    MOCLDY    53  49  86 N7        29.88S
HURON          CLOUDY    54  49  83 N9        29.87R
MADISON        CLOUDY    52  52 100 N12       29.84S
MITCHELL       CLOUDY    54  51  90 N14       29.86R
SIOUX FALLS    CLOUDY    54  52  93 NE7       29.81S
WINNER         PTSUNNY   52  49  89 NW8       29.90R
YANKTON        CLOUDY    55  54  94 NW13      29.79S
$$

MNZ071-072-080-081-089-090-097-098-261200-
SOUTHWEST MINNESOTA

CITY           SKY/WX    TMP DP  RH WIND       PRES   REMARKS
FAIRMONT       CLOUDY    57  52  82 CALM      29.82R
JACKSON        CLOUDY    55  54  94 N7        29.80F
LUVERNE        CLOUDY    55  52  88 NE6       29.81R
MARSHALL       CLOUDY    54  48  82 N13       29.82R
MONTEVIDEO     CLOUDY    55  54  94 N7        29.85S
REDWOOD FALLS  CLOUDY    56  54  93 N8        29.80S
TRACY          CLOUDY    56  54  95 N10       29.82S
WINDOM         CLOUDY    55  54  94 N10       29.81R
WORTHINGTON    CLOUDY    55  52  88 NE7       29.82R THUNDER
$$

IAZ001>003-012>014-020>022-031-032-NEZ013-014-SDZ071-261200-
NORTHWEST IOWA

CITY           SKY/WX    TMP DP  RH WIND       PRES   REMARKS
CHEROKEE       RAIN      60  60 100 SE6       29.78R
DENISON        CLOUDY    59  59 100 SE5       29.76F
ESTHERVILLE    CLOUDY    56  55  97 NE6       29.81R
LE MARS        CLOUDY    61  61 100 E5        29.78R
ORANGE CITY    LGT RAIN  57  57 100 E3        29.78R
SHELDON        CLOUDY    57  57 100 NE13      29.77S
SIOUX CITY     CLOUDY    61  59  93 CALM      29.77S FOG
SPENCER        LGT RAIN  59  57  93 NE9       29.80R
STORM LAKE     CLOUDY    59  57  94 S7        29.80F
$$

ABBREVIATIONS USED IN REMARKS
   TC - TEMPERATURE IN CELSIUS
  WCI - WIND CHILL INDEX
   HX - HEAT INDEX
  VSB - VISIBILITY




USA.gov is the U.S. government's official web portal to all federal, state and local government web resources and services.